Location: Klickitat County Star Party
(45.8642°N, 120.6771°W)
Time: 15:23:48
(UTC-07:00)

N. Korean satellite - Visible Passes

Search period start: 15 October 2019 00:00
Search period end: 25 October 2019 00:00
Orbit: 455 x 508 km, 97.2° (Epoch: 14 October)

Date Brightness Start Highest point End Pass type
(mag) Time Alt. Az. Time Alt. Az. Time Alt. Az.
15 Oct 9.6 06:14:24 10° NE 06:17:10 21° E 06:19:57 10° SE visible
16 Oct 10.4 05:50:44 10° ENE 05:51:41 11° E 05:52:37 10° ESE visible
17 Oct 10.0 19:09:11 10° SW 19:11:14 15° W 19:13:17 10° NW visible
18 Oct 8.6 06:31:29 10° NNE 06:34:46 33° E 06:38:05 10° SSE visible
18 Oct 8.9 18:42:44 10° SSW 18:45:45 29° W 18:48:48 10° NNW visible
19 Oct 9.9 06:06:51 10° NE 06:09:20 17° E 06:11:50 10° SE visible
21 Oct 7.5 06:48:44 10° NNE 06:52:18 56° E 06:55:55 10° S visible
21 Oct 9.8 19:00:52 10° SW 19:03:20 18° W 19:05:49 10° NW visible
22 Oct 9.0 06:23:46 10° NE 06:26:56 27° E 06:30:06 10° SSE visible
22 Oct 8.4 18:34:41 10° SSW 18:37:52 36° W 18:41:07 10° NNW visible
23 Oct 10.1 05:59:21 10° NE 06:01:27 15° E 06:03:33 10° SE visible
24 Oct 10.3 19:19:42 10° WSW 19:20:56 12° W 19:22:10 10° WNW visible
